Location: Unspecified
(0.0000°N, 0.0000°E)
Time: 05:39:43
(UTC+00:00)

METEOR M2 - Pass Details

Date: 06 July 2020
Orbit: 818 x 828 km, 98.5° (Epoch: 13 August)

Event Time Altitude Azimuth Distance (km) Brightness Sun altitude
Exits shadow 20:10:24 68° 226° (SW) 888 ? -28.7°
Maximum altitude 20:10:47 71° 257° (WSW) 872 ? -28.8°
Drops below altitude 10° 20:16:07 10° 341° (NNW) 2,420 ? -30.0°
Sets 20:18:29 0° 343° (NNW) 3,351 ? -30.5°
